sat.trackr.live / text

‹ back to catalog

2024-094C

NORAD 59807 · 2024-094C

PAYLOAD ACTIVE UNKNOWN

§ Identity

Operator
Country
PRC
Launch date
2024-05-20
Launch site
TAISC
Launch vehicle
Mass (kg)
RCS (m²)

External: N2YO · Heavens-Above · Gunter

§ Orbital elements

Epoch: 2026-05-25T04:35:27.329856Z

Period
94.95 min
Inclination
97.3927°
Eccentricity
0.0001429
Mean motion
15.16551926 rev/d
Perigee alt
515.3 km
Apogee alt
517.3 km
Semi-major
6,894.4 km
B*
3.1644e-4
RAAN
216.9585°
Arg perigee
310.6985°
Mean anomaly
49.4124°
Rev number
11,167

§ Raw data

2024-094C1 59807U 24094C   26145.19128854  .00006109  00000+0  31644-3 0  99902 59807  97.3927 216.9585 0001429 310.6985  49.4124 15.16551926111673

JSON: /api/v1/satellites/59807 · /tle

For live sub-satellite position, see the globe view (requires WebGL).

§ Visibility from observer

Set your observer location to see the next 7 days of passes ≥ 10°. The values pass through the URL so the page stays shareable.

No JS? Fill the form by hand. The geolocation button needs JavaScript.